Regional Weather Roundup
Issued by NWS Kansas City/Pleasant Hill, MO

Home | Current Version | Previous Version | Text Only | Print | Product List | Glossary On
Versions: 1 2 3 4 5 6 7 8 9 10 11 12 13 14 15 16 17 18 19 20 21 22 23 24 25 26 27 28 29 30 31 32 33 34 35 36 37 38 39 40 41 42 43 44 45 46 47 48 49 50
000
ASUS43 KEAX 281504
RWREAX

WEATHER ROUNDUP FOR EASTERN KANSAS AND NORTHWEST MISSOURI
NATIONAL WEATHER SERVICE KANSAS CITY/PLEASANT HILL MO
900 AM CST SAT FEB 28 2015

KSZ040-057-103>105-MOZ028-029-037-043-281600-
...KANSAS CITY METROPOLITAN AREA...

CITY           SKY/WX    TMP DP  RH WIND       PRES   REMARKS
K.C. INTL      FLURRIES  19   9  65 SE12      30.51R WCI   7
K.C. DOWNTOWN  CLOUDY    21   9  59 E6        30.53R WCI  13
LEES SUMMIT    CLOUDY    20   8  60 SE8       30.51R WCI  10
OLATHE - IXD   LGT SNOW  18  12  77 SE12      30.51R WCI   5
OLATHE - OJC   LGT SNOW  19  11  70 SE9       30.50R WCI   8
LAWRENCE       LGT SNOW  19  13  77 SE9       30.53R WCI   8

$$

MOZ001>008-011>017-020>025-030>033-038>040-044>046-053-054-281600-
...NORTHERN AND CENTRAL MISSOURI...

CITY           SKY/WX    TMP DP  RH WIND       PRES   REMARKS
ST. JOSEPH     PTSUNNY   17   9  70 SE8       30.53S WCI   7
MOSBY            N/A     21  10  63 SE9       30.53S WCI  11
WARRENSBURG    MOSUNNY   23  10  58 E7        30.54S WCI  15
WHITEMAN AFB   NOT AVBL
CLINTON        PTSUNNY   25  10  54 SE10      30.53S WCI  15
SEDALIA        CLOUDY    22   8  55 SE12      30.54S WCI  10
WARSAW         NOT AVBL
MARSHALL       SUNNY     21  12  68 E7        30.57S WCI  13
CHILLICOTHE      N/A     17   9  70 SE9       30.57S WCI   6
MOBERLY        SUNNY     19   9  63 SE8       30.58S WCI   9
KIRKSVILLE     SUNNY     15   6  67 SE10      30.58S WCI   2

$$

MOZ041-047>049-056>058-063>065-088>090-097-281600-
...EASTERN AND SOUTHERN MISSOURI...

CITY           SKY/WX    TMP DP  RH WIND       PRES   REMARKS
ST. LOUIS INTL PTSUNNY   20   7  57 E8        30.64F WCI  10
SPIRIT OF STL  PTSUNNY   20   6  55 E8        30.64S WCI  10
COLUMBIA       CLOUDY    19  11  70 E10       30.57S WCI   7
JEFFERSON CITY CLOUDY    20  10  65 E13       30.60S WCI   7
MEXICO         CLOUDY    19  14  79 E6        30.59S WCI  11
HANNIBAL       SUNNY     19   1  45 SE7       30.61F WCI  10
ROLLA          FLURRIES  19  10  68 E12       30.54R WCI   7
OSAGE BEACH    CLOUDY    21   9  58 SE9       30.54F WCI  11
SPRINGFIELD    LGT SNOW  21  15  78 SE14      30.47S WCI   8
BRANSON        LGT SNOW  19  16  86 E14       30.49S WCI   6
NEVADA         LGT SNOW  21  14  73 SE10      30.53R WCI  10
JOPLIN         LGT SNOW  21  16  81 SE8       30.49R VSB 3/4 WCI  11
WEST PLAINS    LGT SNOW  19  13  77 E9        30.53R WCI   8

$$

IAZ060-094-KSZ022-034>040-054-083-096-NEZ052-066-093-281600-
...KANSAS...SOUTHEAST NEBRASKA AND IOWA...

CITY           SKY/WX    TMP DP  RH WIND       PRES   REMARKS
TOPEKA         LGT SNOW  18  13  80 SE7       30.52R VSB 1   WCI   9
MANHATTAN      SNOW      18  15  88 SE3       30.48R VSB 1/2
EMPORIA        LGT SNOW  17  15  92 SE7       30.46S VSB 3/4 WCI   8
CHANUTE        LGT SNOW  20  18  92 SE3       30.49R VSB 3/4
WICHITA        SNOW      17  14  88 SE8       30.41S VSB 1/4 WCI   7
OMAHA          MOSUNNY   13   5  70 S13       30.51R WCI  -2
LINCOLN        PTSUNNY   13   6  74 S10       30.46S WCI   0
FALLS CITY     MOSUNNY   18   8  65 SE9       30.49S WCI   7
LAMONI         SUNNY     12   4  70 SE8       30.52F WCI   0
DES MOINES     MOSUNNY    9  -2  61 SE6       30.56S WCI  -1

$$



USA.gov is the U.S. government's official web portal to all federal, state and local government web resources and services.